Fitchburg, MA

5:39 AM EDT on July 21, 2019 (GMT -0400)
Fitchburg Municipal

Weather History for KFIT - May, 2019

Change the Weather History Date:

Thursday, May 9, 2019

  Actual Average (WUND) Record (WUND)
Temperature  
Mean Temperature 50 °F -  
Max Temperature 64 °F - - (-1)
Min Temperature 36 °F - - (-1)
Degree Days  
Heating Degree Days 15    
Moisture  
Dew Point 30 °F    
Average Humidity 48    
Maximum Humidity 79    
Minimum Humidity 28    
Precipitation  
Precipitation 0.00 in - - ()
Sea Level Pressure  
Sea Level Pressure 30.34 in    
Wind  
Wind Speed 4 mph (SE)    
Max Wind Speed 13 mph    
Max Gust Speed -    
Visibility 10 miles    
Events      
Averages and records for this station are not official NWS values.
T = Trace of Precipitation, MM = Missing Value Source: NWS Daily Summary

Daily Weather History Graph

Daily Weather History Graph

Search for Another Location

Airport or City:

Astronomy

May. 09, 2019 Rise Set
Actual Time 5:31 AM EDT 7:55 PM EDT
Civil Twilight 5:00 AM EDT 8:27 PM EDT
Nautical Twilight 4:21 AM EDT 9:06 PM EDT
Astronomical Twilight 3:37 AM EDT 9:50 PM EDT
Moon 9:22 AM EDT (5/9) No Moon Set
Length of Visible Light 15h 27m
Length of Day
14h 23m
Waxing Crescent, 24% of the Moon is Illuminated
May 9
Waxing Crescent
May 11
First Quarter
May 18
Full
May 26
Last Quarter
Jun 3
New

Hourly Weather History & Observations

Time (EDT) Temp. Windchill Dew Point Humidity Pressure Visibility Wind Dir Wind Speed Gust Speed Precip Events Conditions
12:52 AM 39.9 °F - 28.9 °F 65% 30.35 in 10.0 mi Calm Calm - N/A   Clear
1:52 AM 41.0 °F 39.0 °F 28.9 °F 62% 30.36 in 10.0 mi North 3.5 mph - N/A   Clear
2:52 AM 37.0 °F - 30.0 °F 76% 30.37 in 10.0 mi Calm Calm - N/A   Clear
3:52 AM 37.9 °F 34.4 °F 30.0 °F 73% 30.39 in 10.0 mi NW 4.6 mph - N/A   Clear
4:52 AM 36.0 °F 33.3 °F 30.0 °F 79% 30.39 in 10.0 mi NW 3.5 mph - N/A   Clear
5:52 AM 37.0 °F 33.3 °F 30.9 °F 79% 30.40 in 10.0 mi NNW 4.6 mph - N/A   Clear
6:52 AM 41.0 °F - 32.0 °F 70% 30.41 in 10.0 mi Calm Calm - N/A   Clear
7:52 AM 46.0 °F - 32.0 °F 58% 30.41 in 10.0 mi Calm Calm - N/A   Clear
8:52 AM 51.1 °F - 26.1 °F 38% 30.40 in 10.0 mi Variable 5.8 mph - N/A   Clear
9:52 AM 54.0 °F - 27.0 °F 35% 30.40 in 10.0 mi NE 5.8 mph - N/A   Mostly Cloudy
10:52 AM 55.0 °F - 27.0 °F 34% 30.38 in 10.0 mi Variable 3.5 mph - N/A   Mostly Cloudy
11:52 AM 59.0 °F - 27.0 °F 29% 30.36 in 10.0 mi SSE 6.9 mph - N/A   Clear
12:52 PM 59.0 °F - 26.1 °F 28% 30.33 in 10.0 mi Variable 6.9 mph - N/A   Overcast
1:52 PM 61.0 °F - 28.0 °F 29% 30.32 in 10.0 mi SSW 8.1 mph - N/A   Overcast
2:52 PM 62.1 °F - 28.9 °F 29% 30.31 in 10.0 mi SSE 4.6 mph - N/A   Overcast
3:52 PM 62.1 °F - 30.0 °F 30% 30.30 in 10.0 mi Variable 5.8 mph - N/A   Overcast
4:52 PM 64.0 °F - 30.9 °F 29% 30.28 in 10.0 mi SSE 11.5 mph - N/A   Mostly Cloudy
5:52 PM 62.1 °F - 33.1 °F 34% 30.29 in 10.0 mi ESE 12.7 mph - N/A   Partly Cloudy
6:52 PM 57.0 °F - 33.1 °F 40% 30.29 in 10.0 mi SE 8.1 mph - N/A   Overcast
7:52 PM 55.9 °F - 33.1 °F 42% 30.30 in 10.0 mi SE 8.1 mph - N/A   Overcast
8:52 PM 55.9 °F - 34.0 °F 44% 30.31 in 10.0 mi SE 12.7 mph - N/A   Overcast
9:52 PM 54.0 °F - 33.1 °F 45% 30.31 in 10.0 mi SSE 10.4 mph - N/A   Overcast
10:52 PM 52.0 °F - 33.1 °F 49% 30.30 in 10.0 mi SSE 10.4 mph - N/A   Overcast
11:52 PM 51.1 °F - 32.0 °F 48% 30.29 in 10.0 mi South 8.1 mph - N/A   Overcast